This is the latest recevied weather packets stored in our database for station/object KB0Y. If no packets are shown the sender has not sent any weather packets the latest 10 day(s).
| Time | Temp. | Humidity | Pressure | Rain* | Wind** | Luminosity | Snow |
|---|---|---|---|---|---|---|---|
| 1777300385 | 20.56° C | 83% | 1023.4 hPa | 0 mm | - | 173 W/m² | - |
| 1777300082 | 20.56° C | 84% | 1023.4 hPa | 0 mm | - | 173 W/m² | - |
| 1777299778 | 20.56° C | 83% | 1023.1 hPa | 0 mm | - | 152 W/m² | - |
| 1777299476 | 20.56° C | 83% | 1023.1 hPa | 0 mm | - | 152 W/m² | - |
| 1777299173 | 20.56° C | 84% | 1023.4 hPa | 0 mm | - | 145 W/m² | - |
| 1777298871 | 20.56° C | 84% | 1023.1 hPa | 0 mm | - | 123 W/m² | - |
| 1777298567 | 20.56° C | 84% | 1023.1 hPa | 0 mm | - | 126 W/m² | - |
| 1777298263 | 20.56° C | 84% | 1023.1 hPa | 0 mm | - | 126 W/m² | - |
| 1777297959 | 20.56° C | 85% | 1023.4 hPa | 0 mm | - | 134 W/m² | - |
| 1777297656 | 20.56° C | 85% | 1023.1 hPa | 0 mm | - | 148 W/m² | - |
| 1777297353 | 20.56° C | 85% | 1022.8 hPa | 0 mm | - | 137 W/m² | - |
| 1777297050 | 20.56° C | 84% | 1022.8 hPa | 0 mm | - | 139 W/m² | - |
| 1777296746 | 20.56° C | 84% | 1022.8 hPa | 0 mm | - | 190 W/m² | - |
| 1777296442 | 20.56° C | 84% | 1022.8 hPa | 0 mm | - | 289 W/m² | - |
| 1777296138 | 20.56° C | 85% | 1022.8 hPa | 0 mm | - | 139 W/m² | - |
| 1777295835 | 20.56° C | 87% | 1022.8 hPa | 0 mm | - | 179 W/m² | - |
| 1777295532 | 20.56° C | 86% | 1022.8 hPa | 0 mm | - | 245 W/m² | - |
| 1777295230 | 20.56° C | 86% | 1022.4 hPa | 0 mm | - | 192 W/m² | - |
| 1777294928 | 20.56° C | 86% | 1022.8 hPa | 0 mm | - | 128 W/m² | - |
| 1777294622 | 20.56° C | 84% | 1022.4 hPa | 0 mm | - | 202 W/m² | - |
| 1777294319 | 20° C | 86% | 1022.4 hPa | 0 mm | - | 193 W/m² | - |
| 1777294015 | 20° C | 86% | 1022.4 hPa | 0 mm | - | 168 W/m² | - |
| 1777293711 | 20° C | 88% | 1022.4 hPa | 0 mm | - | 143 W/m² | - |
| 1777293407 | 20° C | 88% | 1022.1 hPa | 0 mm | - | 136 W/m² | - |
| 1777293103 | 19.44° C | 89% | 1022.1 hPa | 0 mm | - | 133 W/m² | - |
* Rain latest hour (hover to see other rain measurements)
** Current wind speed in m/s (hover to see current wind gust speed)